Location: Newark
(50.4348°N, 30.5552°E)
Time: 01:49:42
(UTC+00:00)

Transit 4A - Visible Passes

Search period start: 26 January 2020 00:00
Search period end: 05 February 2020 00:00
Orbit: 872 x 973 km, 66.8° (Epoch: 25 January)

Date Brightness Start Highest point End Pass type
(mag) Time Alt. Az. Time Alt. Az. Time Alt. Az.
26 Jan 10.7 02:49:38 10° SE 02:52:41 14° ESE 02:55:42 10° ENE visible
26 Jan 8.2 04:32:04 10° SSW 04:38:02 72° ESE 04:43:56 10° NE visible
27 Jan 10.3 02:57:21 10° SSE 03:01:41 21° ESE 03:05:58 10° ENE visible
27 Jan 7.8 04:41:21 10° SW 04:47:22 85° NW 04:53:17 10° NE visible
28 Jan 9.7 03:05:39 10° S 03:10:46 30° ESE 03:15:46 10° NE visible
28 Jan 7.8 04:50:48 10° SW 04:56:45 64° NW 05:02:37 10° NNE visible
29 Jan 9.0 03:14:18 10° S 03:19:54 42° ESE 03:25:24 10° NE visible
29 Jan 8.1 05:00:27 10° WSW 05:06:13 48° NW 05:11:55 10° NNE visible
30 Jan 10.7 01:42:37 10° ESE 01:43:56 11° E 01:45:17 10° E visible
30 Jan 8.4 03:23:14 10° SSW 03:29:07 58° ESE 03:34:53 10° NE visible
31 Jan 10.3 01:49:20 10° SE 01:52:54 17° ESE 01:56:27 10° ENE visible
31 Jan 7.9 03:32:23 10° SSW 03:38:23 80° SE 03:44:17 10° NE visible
01 Feb 9.8 01:58:14 14° SSE 02:01:56 24° ESE 02:06:30 10° ENE visible
01 Feb 7.7 03:41:51 10° SW 03:47:44 76° NW 03:53:37 10° NE visible
02 Feb 9.2 02:08:37 24° SSE 02:11:02 34° ESE 02:16:14 10° NE visible
02 Feb 7.9 03:52:12 15° WSW 03:57:08 57° NW 04:02:57 10° NNE visible
03 Feb 8.6 02:18:39 38° SSE 02:20:12 47° ESE 02:25:48 10° NE visible
03 Feb 8.2 04:02:13 16° WSW 04:06:38 44° NW 04:12:14 10° NNE visible
04 Feb 10.4 00:44:54 12° E 00:44:54 12° E 00:46:34 10° ENE visible
04 Feb 8.0 02:28:27 56° SSE 02:29:26 66° ESE 02:35:15 10° NE visible
04 Feb 8.5 04:12:01 16° W 04:16:11 35° NW 04:21:31 10° NNE visible
